• In Romania
  • List of Countries
  • For 7 days
  • Water Temperature
  • Satellite Maps
  • Weather Map
  • Weather Widgets
  • user-avatar
    Login

    Hourly Weather Ischgl

    Today, 21 January, Sunday

    Time Temperature Precipitation Wind Pressure Humidity
    00:00 -12°C° 2 mm 3 mps 560 mmHg 95%
    01:00 -8°C° 0 mm 1 mps 560 mmHg 96%
    02:00 -9°C° 1.6 mm 2 mps 561 mmHg 96%
    03:00 -8°C° 1.6 mm 2 mps 561 mmHg 97%
    04:00 -9°C° 1.6 mm 3 mps 562 mmHg 97%
    05:00 -9°C° 1.4 mm 3 mps 562 mmHg 96%
    06:00 -11°C° 1.4 mm 4 mps 562 mmHg 95%
    07:00 -11°C° 1.4 mm 4 mps 563 mmHg 95%
    08:00 -11°C° 0.9 mm 4 mps 563 mmHg 94%
    09:00 -12°C° 0.9 mm 4 mps 564 mmHg 94%
    10:00 -12°C° 0.9 mm 4 mps 564 mmHg 93%
    11:00 -12°C° 0.5 mm 4 mps 564 mmHg 92%
    12:00 -12°C° 0.5 mm 4 mps 565 mmHg 91%
    13:00 -12°C° 0.5 mm 4 mps 565 mmHg 90%
    14:00 -13°C° 0.3 mm 3 mps 566 mmHg 90%
    15:00 -13°C° 0.3 mm 3 mps 566 mmHg 90%
    16:00 -12°C° 0.3 mm 2 mps 566 mmHg 91%
    17:00 -13°C° 0.2 mm 2 mps 567 mmHg 91%
    18:00 -14°C° 0.2 mm 2 mps 567 mmHg 91%
    19:00 -14°C° 0.2 mm 2 mps 567 mmHg 91%
    20:00 -14°C° 0.3 mm 2 mps 567 mmHg 91%
    21:00 -14°C° 0.3 mm 2 mps 567 mmHg 91%
    22:00 -13°C° 0.3 mm 2 mps 568 mmHg 90%
    23:00 -13°C° 0.6 mm 2 mps 568 mmHg 91%

    Tomorrow, 22 January, Monday

    Time Temperature Precipitation Wind Pressure Humidity
    00:00 -12°C° 0.6 mm 2 mps 568 mmHg 92%
    01:00 -10°C° 0.6 mm 2 mps 568 mmHg 93%
    02:00 -9°C° 1.8 mm 2 mps 568 mmHg 94%
    03:00 -8°C° 1.8 mm 2 mps 568 mmHg 95%
    04:00 -7°C° 1.8 mm 2 mps 568 mmHg 95%
    05:00 -7°C° 3 mm 2 mps 568 mmHg 96%
    06:00 -7°C° 3 mm 2 mps 568 mmHg 96%
    07:00 -6°C° 3 mm 2 mps 568 mmHg 96%
    08:00 -6°C° 2.3 mm 2 mps 569 mmHg 96%
    09:00 -5°C° 2.3 mm 2 mps 569 mmHg 96%
    10:00 -5°C° 2.3 mm 2 mps 569 mmHg 96%
    11:00 -4°C° 1.9 mm 2 mps 569 mmHg 97%
    12:00 -4°C° 1.9 mm 2 mps 569 mmHg 97%
    13:00 -2°C° 1.9 mm 1 mps 569 mmHg 97%
    14:00 -4°C° 1.8 mm 2 mps 569 mmHg 97%
    15:00 -4°C° 1.8 mm 2 mps 569 mmHg 97%
    16:00 -4°C° 1.8 mm 2 mps 569 mmHg 97%
    17:00 -4°C° 1.2 mm 2 mps 570 mmHg 96%
    18:00 -5°C° 1.2 mm 2 mps 570 mmHg 96%
    19:00 -5°C° 1.2 mm 2 mps 570 mmHg 96%
    20:00 -5°C° 0.2 mm 2 mps 571 mmHg 96%
    21:00 -6°C° 0.2 mm 2 mps 571 mmHg 95%
    22:00 -6°C° 0.2 mm 2 mps 571 mmHg 95%
    23:00 -7°C° 0 mm 2 mps 571 mmHg 95%

    Day after tomorrow, 23 January, Tuesday

    Time Temperature Precipitation Wind Pressure Humidity
    00:00 -8°C° 0 mm 2 mps 572 mmHg 95%
    01:00 -8°C° 0 mm 2 mps 572 mmHg 96%
    02:00 -9°C° 0 mm 2 mps 572 mmHg 95%
    03:00 -9°C° 0 mm 2 mps 572 mmHg 95%
    04:00 -10°C° 0 mm 2 mps 572 mmHg 95%
    05:00 -10°C° 0 mm 2 mps 572 mmHg 92%
    06:00 -12°C° 0 mm 2 mps 572 mmHg 90%
    07:00 -13°C° 0 mm 2 mps 572 mmHg 88%
    08:00 -10°C° 0 mm 2 mps 573 mmHg 85%
    09:00 -9°C° 0 mm 2 mps 574 mmHg 82%
    10:00 -7°C° 0 mm 2 mps 575 mmHg 79%
    11:00 -6°C° 0 mm 2 mps 575 mmHg 82%
    12:00 -5°C° 0 mm 2 mps 576 mmHg 84%
    13:00 -2°C° 0 mm 1 mps 576 mmHg 87%
    14:00 -2°C° 0 mm 1 mps 576 mmHg 84%
    15:00 -3°C° 0 mm 1 mps 576 mmHg 80%
    16:00 -3°C° 0 mm 1 mps 575 mmHg 77%
    17:00 -6°C° 0 mm 1 mps 575 mmHg 70%
    18:00 -7°C° 0 mm 1 mps 574 mmHg 63%
    19:00 -10°C° 0 mm 2 mps 574 mmHg 56%
    20:00 -10°C° 0 mm 2 mps 574 mmHg 55%
    21:00 -10°C° 0 mm 2 mps 574 mmHg 53%
    22:00 -10°C° 0 mm 2 mps 574 mmHg 51%
    23:00 -10°C° 0 mm 2 mps 575 mmHg 53%

    24 January, Wednesday

    Time Temperature Precipitation Wind Pressure Humidity
    00:00 -9°C° 0 mm 2 mps 575 mmHg 54%
    01:00 -9°C° 0 mm 2 mps 575 mmHg 55%
    02:00 -8°C° 0 mm 2 mps 575 mmHg 55%
    03:00 -7°C° 0 mm 1 mps 576 mmHg 54%
    04:00 -6°C° 0 mm 1 mps 576 mmHg 54%
    05:00 -7°C° 0 mm 1 mps 576 mmHg 53%
    06:00 -7°C° 0 mm 1 mps 575 mmHg 53%
    07:00 -7°C° 0 mm 1 mps 575 mmHg 52%
    08:00 -6°C° 0 mm 1 mps 576 mmHg 58%
    09:00 -5°C° 0 mm 2 mps 577 mmHg 64%
    10:00 -4°C° 0 mm 2 mps 578 mmHg 70%
    11:00 -4°C° 0 mm 2 mps 577 mmHg 77%
    12:00 -3°C° 0 mm 2 mps 577 mmHg 84%
    13:00 -2°C° 0 mm 2 mps 577 mmHg 91%
    14:00 -3°C° 0 mm 2 mps 577 mmHg 88%
    15:00 -3°C° 0 mm 2 mps 577 mmHg 85%
    16:00 -4°C° 0 mm 2 mps 576 mmHg 83%
    17:00 -5°C° 0 mm 2 mps 576 mmHg 78%
    18:00 -7°C° 0 mm 3 mps 575 mmHg 73%
    19:00 -9°C° 0 mm 3 mps 574 mmHg 68%
    20:00 -9°C° 0 mm 3 mps 574 mmHg 67%
    21:00 -9°C° 0 mm 3 mps 574 mmHg 66%
    22:00 -9°C° 0 mm 3 mps 574 mmHg 65%
    23:00 -9°C° 0 mm 3 mps 574 mmHg 65%

    25 January, Thursday

    Time Temperature Precipitation Wind Pressure Humidity
    00:00 -9°C° 0 mm 3 mps 574 mmHg 65%
    01:00 -9°C° 0 mm 3 mps 573 mmHg 65%
    02:00 -9°C° 0 mm 3 mps 573 mmHg 66%
    03:00 -9°C° 0 mm 3 mps 573 mmHg 67%
    04:00 -9°C° 0 mm 3 mps 573 mmHg 68%
    05:00 -9°C° 0 mm 3 mps 573 mmHg 69%
    06:00 -8°C° 0 mm 2 mps 573 mmHg 69%
    07:00 -8°C° 0 mm 2 mps 573 mmHg 69%
    08:00 -7°C° 0 mm 2 mps 573 mmHg 72%
    09:00 -7°C° 0 mm 2 mps 573 mmHg 75%
    10:00 -6°C° 0 mm 2 mps 574 mmHg 77%
    11:00 -5°C° 0 mm 2 mps 574 mmHg 82%
    12:00 -4°C° 0 mm 2 mps 573 mmHg 87%
    13:00 -4°C° 0 mm 2 mps 573 mmHg 92%
    14:00 -4°C° 0 mm 2 mps 573 mmHg 92%
    15:00 -4°C° 0 mm 2 mps 572 mmHg 91%
    16:00 -5°C° 0 mm 2 mps 572 mmHg 91%
    17:00 -6°C° 0 mm 2 mps 571 mmHg 90%
    18:00 -6°C° 0 mm 2 mps 571 mmHg 89%
    19:00 -8°C° 0 mm 3 mps 571 mmHg 88%
    20:00 -8°C° 0 mm 3 mps 570 mmHg 88%
    21:00 -8°C° 0 mm 3 mps 570 mmHg 87%
    22:00 -9°C° 0 mm 3 mps 570 mmHg 87%
    23:00 -9°C° 0 mm 3 mps 570 mmHg 87%

    26 January, Friday

    Time Temperature Precipitation Wind Pressure Humidity
    00:00 -9°C° 0 mm 3 mps 570 mmHg 87%
    01:00 -9°C° 0 mm 3 mps 569 mmHg 87%
    02:00 -9°C° 0 mm 3 mps 569 mmHg 87%
    03:00 -9°C° 0 mm 3 mps 569 mmHg 88%
    04:00 -9°C° 0 mm 3 mps 568 mmHg 88%
    05:00 -10°C° 0 mm 3 mps 568 mmHg 88%
    06:00 -10°C° 0 mm 3 mps 568 mmHg 88%
    07:00 -10°C° 0 mm 3 mps 568 mmHg 88%
    08:00 -9°C° 0.2 mm 3 mps 568 mmHg 89%
    09:00 -7°C° 0.2 mm 2 mps 569 mmHg 90%
    10:00 -6°C° 0.2 mm 2 mps 570 mmHg 90%
    11:00 -6°C° 0.8 mm 2 mps 570 mmHg 92%
    12:00 -6°C° 0.8 mm 2 mps 570 mmHg 94%
    13:00 -5°C° 0.8 mm 2 mps 570 mmHg 96%
    14:00 -6°C° 1.6 mm 2 mps 570 mmHg 96%
    15:00 -6°C° 1.6 mm 2 mps 570 mmHg 97%
    16:00 -7°C° 1.6 mm 2 mps 570 mmHg 97%
    17:00 -7°C° 1.6 mm 1 mps 570 mmHg 97%
    18:00 -7°C° 1.6 mm 1 mps 570 mmHg 97%
    19:00 -8°C° 1.6 mm 1 mps 570 mmHg 97%
    20:00 -9°C° 1.5 mm 2 mps 570 mmHg 97%
    21:00 -9°C° 1.5 mm 2 mps 570 mmHg 97%
    22:00 -10°C° 1.5 mm 2 mps 570 mmHg 97%
    23:00 -10°C° 1.1 mm 2 mps 571 mmHg 97%
    Show more